When you browse on this site, cookies collect data to enhance your experience and personalize the content and advertising you see.
Visit our Privacy Policy to learn more. By continuing to use the site, you agree to this use of cookies and data.
  • In Österreich
  • Länderverzeichnis
  • Für 7 Tage
  • Wassertemperatur
  • Wetterkarte
  • News
  • Widgets
  • user-avatar
    Anmelden

    Stündliche Wetter Los Reyes

    Heute, 18 Januar, Samstag

    Zeit Temperatur Niederschläge Wind Luftdruck Luftfeuchtigkeit
    00:00 +10°C° 0 mm 0 m/S 586 mmHg 93%
    01:00 +10°C° 0 mm 0 m/S 585 mmHg 93%
    02:00 +10°C° 0 mm 0 m/S 585 mmHg 92%
    03:00 +9°C° 0 mm 0 m/S 585 mmHg 93%
    04:00 +9°C° 0 mm 0 m/S 585 mmHg 93%
    05:00 +9°C° 0 mm 0 m/S 585 mmHg 93%
    06:00 +10°C° 0 mm 0 m/S 586 mmHg 90%
    07:00 +11°C° 0 mm 0 m/S 587 mmHg 87%
    08:00 +12°C° 0 mm 0 m/S 587 mmHg 84%
    09:00 +14°C° 0 mm 1 m/S 588 mmHg 80%
    10:00 +15°C° 0 mm 2 m/S 588 mmHg 75%
    11:00 +16°C° 0 mm 2 m/S 588 mmHg 70%
    12:00 +16°C° 0.2 mm 2 m/S 588 mmHg 74%
    13:00 +15°C° 0.2 mm 2 m/S 587 mmHg 78%
    14:00 +15°C° 0.2 mm 2 m/S 586 mmHg 82%
    15:00 +14°C° 0.2 mm 2 m/S 586 mmHg 86%
    16:00 +14°C° 0.2 mm 2 m/S 585 mmHg 90%
    17:00 +13°C° 0.2 mm 1 m/S 585 mmHg 94%
    18:00 +13°C° 0.3 mm 1 m/S 586 mmHg 95%
    19:00 +12°C° 0.3 mm 1 m/S 586 mmHg 95%
    20:00 +12°C° 0.3 mm 1 m/S 586 mmHg 96%
    21:00 +11°C° 0.2 mm 0 m/S 586 mmHg 95%
    22:00 +11°C° 0.2 mm 0 m/S 586 mmHg 95%
    23:00 +11°C° 0.2 mm 0 m/S 586 mmHg 94%

    Morgen, 19 Januar, Sonntag

    Zeit Temperatur Niederschläge Wind Luftdruck Luftfeuchtigkeit
    00:00 +10°C° 0.3 mm 0 m/S 586 mmHg 95%
    01:00 +10°C° 0.3 mm 0 m/S 586 mmHg 95%
    02:00 +11°C° 0.3 mm 1 m/S 586 mmHg 96%
    03:00 +11°C° 1.3 mm 1 m/S 586 mmHg 96%
    04:00 +11°C° 1.3 mm 1 m/S 586 mmHg 97%
    05:00 +11°C° 1.3 mm 1 m/S 586 mmHg 98%
    06:00 +11°C° 2.6 mm 1 m/S 587 mmHg 98%
    07:00 +11°C° 2.6 mm 1 m/S 587 mmHg 98%
    08:00 +11°C° 2.6 mm 1 m/S 588 mmHg 98%
    09:00 +10°C° 2.1 mm 2 m/S 587 mmHg 98%
    10:00 +10°C° 2.1 mm 2 m/S 587 mmHg 97%
    11:00 +10°C° 2.1 mm 2 m/S 587 mmHg 97%
    12:00 +9°C° 0.9 mm 2 m/S 587 mmHg 97%
    13:00 +10°C° 0.9 mm 1 m/S 587 mmHg 97%
    14:00 +10°C° 0.9 mm 1 m/S 586 mmHg 96%
    15:00 +10°C° 0.3 mm 1 m/S 586 mmHg 97%
    16:00 +10°C° 0.3 mm 1 m/S 586 mmHg 97%
    17:00 +10°C° 0.3 mm 1 m/S 586 mmHg 97%
    18:00 +10°C° 1 mm 1 m/S 587 mmHg 98%
    19:00 +10°C° 1 mm 1 m/S 587 mmHg 98%
    20:00 +9°C° 1 mm 1 m/S 588 mmHg 98%
    21:00 +9°C° 1 mm 1 m/S 588 mmHg 98%
    22:00 +8°C° 1 mm 0 m/S 588 mmHg 98%
    23:00 +8°C° 1 mm 0 m/S 588 mmHg 98%

    übermorgen, 20 Januar, Montag

    Zeit Temperatur Niederschläge Wind Luftdruck Luftfeuchtigkeit
    00:00 +9°C° 0.9 mm 1 m/S 588 mmHg 98%
    01:00 +9°C° 0.9 mm 1 m/S 587 mmHg 98%
    02:00 +9°C° 0.9 mm 1 m/S 587 mmHg 98%
    03:00 +9°C° 0.1 mm 1 m/S 587 mmHg 98%
    04:00 +9°C° 0.1 mm 1 m/S 587 mmHg 98%
    05:00 +9°C° 0.1 mm 1 m/S 587 mmHg 98%
    06:00 +9°C° 0.4 mm 1 m/S 588 mmHg 98%
    07:00 +9°C° 0.4 mm 1 m/S 588 mmHg 97%
    08:00 +9°C° 0.4 mm 1 m/S 589 mmHg 97%
    09:00 +9°C° 0.5 mm 1 m/S 589 mmHg 96%
    10:00 +10°C° 0.5 mm 1 m/S 588 mmHg 95%
    11:00 +10°C° 0.5 mm 1 m/S 588 mmHg 93%
    12:00 +9°C° 0.3 mm 2 m/S 588 mmHg 93%
    13:00 +9°C° 0.3 mm 2 m/S 587 mmHg 93%
    14:00 +9°C° 0.3 mm 2 m/S 587 mmHg 93%
    15:00 +9°C° 0.2 mm 2 m/S 587 mmHg 94%
    16:00 +8°C° 0.2 mm 2 m/S 587 mmHg 95%
    17:00 +8°C° 0.2 mm 2 m/S 586 mmHg 96%
    18:00 +8°C° 0.2 mm 2 m/S 587 mmHg 97%
    19:00 +8°C° 0.2 mm 2 m/S 587 mmHg 97%
    20:00 +9°C° 0.2 mm 1 m/S 587 mmHg 97%
    21:00 +9°C° 0.1 mm 1 m/S 587 mmHg 97%
    22:00 +9°C° 0.1 mm 1 m/S 587 mmHg 97%
    23:00 +9°C° 0.1 mm 1 m/S 587 mmHg 97%

    21 Januar, Dienstag

    Zeit Temperatur Niederschläge Wind Luftdruck Luftfeuchtigkeit
    00:00 +9°C° 0.1 mm 1 m/S 587 mmHg 97%
    01:00 +9°C° 0.1 mm 1 m/S 587 mmHg 97%
    02:00 +9°C° 0.1 mm 1 m/S 587 mmHg 97%
    03:00 +8°C° 0 mm 1 m/S 586 mmHg 97%
    04:00 +8°C° 0 mm 1 m/S 586 mmHg 96%
    05:00 +8°C° 0 mm 1 m/S 586 mmHg 95%
    06:00 +9°C° 0 mm 1 m/S 586 mmHg 93%
    07:00 +9°C° 0 mm 1 m/S 587 mmHg 90%
    08:00 +10°C° 0 mm 1 m/S 587 mmHg 87%
    09:00 +11°C° 0 mm 1 m/S 587 mmHg 86%
    10:00 +11°C° 0 mm 1 m/S 587 mmHg 85%
    11:00 +12°C° 0 mm 2 m/S 587 mmHg 83%
    12:00 +12°C° 0 mm 2 m/S 586 mmHg 84%
    13:00 +12°C° 0 mm 2 m/S 585 mmHg 84%
    14:00 +12°C° 0 mm 2 m/S 585 mmHg 84%
    15:00 +10°C° 0 mm 2 m/S 584 mmHg 87%
    16:00 +11°C° 0 mm 1 m/S 584 mmHg 89%
    17:00 +10°C° 0 mm 1 m/S 584 mmHg 92%
    18:00 +10°C° 0 mm 1 m/S 584 mmHg 93%
    19:00 +9°C° 0 mm 1 m/S 584 mmHg 94%
    20:00 +8°C° 0 mm 0 m/S 584 mmHg 95%
    21:00 +8°C° 0 mm 0 m/S 584 mmHg 93%
    22:00 +8°C° 0 mm 0 m/S 584 mmHg 92%
    23:00 +9°C° 0 mm 1 m/S 584 mmHg 90%

    22 Januar, Mittwoch

    Zeit Temperatur Niederschläge Wind Luftdruck Luftfeuchtigkeit
    00:00 +9°C° 0 mm 1 m/S 583 mmHg 89%
    01:00 +9°C° 0 mm 1 m/S 583 mmHg 88%
    02:00 +8°C° 0 mm 1 m/S 582 mmHg 88%
    03:00 +8°C° 0 mm 1 m/S 582 mmHg 87%
    04:00 +8°C° 0 mm 1 m/S 582 mmHg 87%
    05:00 +8°C° 0 mm 1 m/S 582 mmHg 87%
    06:00 +10°C° 0 mm 1 m/S 583 mmHg 82%
    07:00 +11°C° 0 mm 1 m/S 584 mmHg 76%
    08:00 +13°C° 0 mm 1 m/S 585 mmHg 71%
    09:00 +14°C° 0 mm 1 m/S 585 mmHg 66%
    10:00 +16°C° 0 mm 2 m/S 586 mmHg 61%
    11:00 +18°C° 0 mm 2 m/S 586 mmHg 55%
    12:00 +17°C° 0.1 mm 2 m/S 585 mmHg 60%
    13:00 +16°C° 0.1 mm 2 m/S 584 mmHg 65%
    14:00 +16°C° 0.1 mm 2 m/S 583 mmHg 70%
    15:00 +15°C° 0.1 mm 2 m/S 583 mmHg 75%
    16:00 +14°C° 0.1 mm 1 m/S 582 mmHg 80%
    17:00 +13°C° 0.1 mm 1 m/S 582 mmHg 85%
    18:00 +12°C° 0 mm 0 m/S 582 mmHg 85%
    19:00 +11°C° 0 mm 0 m/S 582 mmHg 84%
    20:00 +11°C° 0 mm 0 m/S 583 mmHg 84%
    21:00 +11°C° 0 mm 1 m/S 583 mmHg 83%
    22:00 +11°C° 0 mm 1 m/S 582 mmHg 81%
    23:00 +10°C° 0 mm 1 m/S 582 mmHg 80%

    23 Januar, Donnerstag

    Zeit Temperatur Niederschläge Wind Luftdruck Luftfeuchtigkeit
    00:00 +10°C° 0 mm 1 m/S 582 mmHg 79%
    01:00 +10°C° 0 mm 1 m/S 581 mmHg 78%
    02:00 +10°C° 0 mm 1 m/S 581 mmHg 76%
    03:00 +9°C° 0 mm 2 m/S 581 mmHg 75%
    04:00 +9°C° 0 mm 2 m/S 581 mmHg 73%
    05:00 +9°C° 0 mm 2 m/S 581 mmHg 71%
    06:00 +10°C° 0 mm 2 m/S 582 mmHg 68%
    07:00 +13°C° 0 mm 2 m/S 583 mmHg 64%
    08:00 +14°C° 0 mm 2 m/S 584 mmHg 60%
    09:00 +15°C° 0 mm 2 m/S 584 mmHg 55%
    10:00 +17°C° 0 mm 2 m/S 585 mmHg 50%
    11:00 +18°C° 0 mm 3 m/S 585 mmHg 45%
    12:00 +18°C° 0.2 mm 2 m/S 584 mmHg 47%
    13:00 +18°C° 0.2 mm 2 m/S 584 mmHg 49%
    14:00 +18°C° 0.2 mm 2 m/S 583 mmHg 51%
    15:00 +17°C° 0.3 mm 2 m/S 582 mmHg 60%
    16:00 +15°C° 0.3 mm 1 m/S 582 mmHg 69%
    17:00 +14°C° 0.3 mm 1 m/S 581 mmHg 78%
    18:00 +13°C° 0 mm 1 m/S 582 mmHg 75%
    19:00 +13°C° 0 mm 2 m/S 582 mmHg 71%
    20:00 +12°C° 0 mm 2 m/S 582 mmHg 68%
    21:00 +12°C° 0 mm 2 m/S 582 mmHg 67%
    22:00 +10°C° 0 mm 2 m/S 582 mmHg 67%
    23:00 +10°C° 0 mm 3 m/S 582 mmHg 66%
    Mehr zeigen